Cecil Field, FL

3:52 PM EDT on May 25, 2017 (GMT -0400)
Cecil

Weather History for KVQQ - September, 2013

Change the Weather History Date:

Tuesday, September 10, 2013

  Actual Average (KNIP) Record (KNIP)
Temperature  
Mean Temperature 77 °F -  
Max Temperature 86 °F 85 °F 96 °F (2016)
Min Temperature 68 °F 72 °F 71 °F (1997)
Cooling Degree Days 12    
Growing Degree Days 27 (Base 50)    
Moisture  
Dew Point 70 °F    
Average Humidity 89    
Maximum Humidity 100    
Minimum Humidity 55    
Precipitation  
Precipitation 0.00 in - - ()
Sea Level Pressure  
Sea Level Pressure 30.11 in    
Wind  
Wind Speed 2 mph (ENE)    
Max Wind Speed 15 mph    
Max Gust Speed -    
Visibility 8 miles    
Events      
Averages and records for this station are not official NWS values.
T = Trace of Precipitation, MM = Missing Value Source: NWS Daily Summary

Daily Weather History Graph

Daily Weather History Graph

Search for Another Location

Airport or City:

Trip Planner

Search our weather history database for the weather conditions in past years. The results will help you decide how hot, cold, wet, or windy it might be!

Date:

Astronomy

Sep. 10, 2013 Rise Set
Actual Time 7:09 AM EDT 7:38 PM EDT
Civil Twilight 6:45 AM EDT 8:02 PM EDT
Nautical Twilight 6:16 AM EDT 8:31 PM EDT
Astronomical Twilight 5:48 AM EDT 8:59 PM EDT
Moon 12:08 PM EDT (9/10) 11:06 PM EDT (9/10)
Length of Visible Light 13h 17m
Length of Day
12h 29m
Waxing Crescent, 28% of the Moon is Illuminated
Sep 10
Waxing Crescent
Sep 12
First Quarter
Sep 19
Full
Sep 26
Last Quarter
Oct 4
New

Hourly Weather History & Observations

Time (EDT) Temp. Heat Index Dew Point Humidity Pressure Visibility Wind Dir Wind Speed Gust Speed Precip Events Conditions
12:15 AM 68.0 °F - 68.0 °F 100% 30.09 in 10.0 mi Calm Calm - N/A   Clear
12:35 AM 68.0 °F - 68.0 °F 100% 30.08 in 7.0 mi Calm Calm - N/A   Clear
12:55 AM 68.0 °F - 68.0 °F 100% 30.09 in 6.0 mi Calm Calm - N/A   Clear
1:15 AM 68.0 °F - 68.0 °F 100% 30.09 in 7.0 mi Calm Calm - N/A   Clear
1:35 AM 68.0 °F - 68.0 °F 100% 30.08 in 8.0 mi Calm Calm - N/A   Clear
1:55 AM 68.0 °F - 68.0 °F 100% 30.08 in 7.0 mi Calm Calm - N/A   Partly Cloudy
2:15 AM 68.0 °F - 68.0 °F 100% 30.08 in 6.0 mi Calm Calm - N/A   Scattered Clouds
2:35 AM 68.0 °F - 68.0 °F 100% 30.08 in 5.0 mi Calm Calm - N/A   Scattered Clouds
2:55 AM 68.0 °F - 68.0 °F 100% 30.07 in 5.0 mi Calm Calm - N/A   Partly Cloudy
3:15 AM 68.0 °F - 68.0 °F 100% 30.07 in 9.0 mi Calm Calm - N/A   Clear
3:35 AM 68.0 °F - 68.0 °F 100% 30.07 in 7.0 mi Calm Calm - N/A   Clear
3:55 AM 68.0 °F - 68.0 °F 100% 30.06 in 4.0 mi Calm Calm - N/A   Clear
4:15 AM 68.0 °F - 68.0 °F 100% 30.06 in 5.0 mi Calm Calm - N/A   Clear
4:35 AM 68.0 °F - 68.0 °F 100% 30.06 in 5.0 mi Calm Calm - N/A   Clear
4:55 AM 68.0 °F - 68.0 °F 100% 30.07 in 6.0 mi Calm Calm - N/A   Clear
5:15 AM 68.0 °F - 68.0 °F 100% 30.07 in 5.0 mi Calm Calm - N/A   Clear
5:35 AM 68.0 °F - 68.0 °F 100% 30.08 in 5.0 mi Calm Calm - N/A   Clear
5:55 AM 68.0 °F - 68.0 °F 100% 30.08 in 5.0 mi Calm Calm - N/A   Clear
6:15 AM 68.0 °F - 68.0 °F 100% 30.08 in 5.0 mi Calm Calm - N/A   Clear
6:35 AM 68.0 °F - 68.0 °F 100% 30.09 in 5.0 mi Calm Calm - N/A   Clear
6:50 AM 68.0 °F - 68.0 °F 100% 30.09 in 5.0 mi NNE 4.6 mph - N/A   Scattered Clouds
7:50 AM 68.0 °F - 68.0 °F 100% 30.11 in 10.0 mi North 5.8 mph - N/A   Scattered Clouds
8:50 AM 75.2 °F - 75.2 °F 100% 30.13 in 10.0 mi North 8.1 mph - N/A   Scattered Clouds
9:50 AM 80.6 °F 85.4 °F 73.4 °F 79% 30.14 in 10.0 mi NE 9.2 mph - N/A   Scattered Clouds
10:50 AM 82.4 °F 87.2 °F 71.6 °F 70% 30.16 in 10.0 mi ENE 8.1 mph - N/A   Scattered Clouds
11:50 AM 84.2 °F 87.3 °F 68.0 °F 58% 30.16 in 10.0 mi East 11.5 mph - N/A   Scattered Clouds
12:50 PM 86.0 °F 89.4 °F 68.0 °F 55% 30.15 in 10.0 mi ENE 6.9 mph - N/A   Scattered Clouds
1:50 PM 86.0 °F 89.4 °F 68.0 °F 55% 30.14 in 10.0 mi ENE 11.5 mph - N/A   Scattered Clouds
2:50 PM 86.0 °F 89.4 °F 68.0 °F 55% 30.12 in 10.0 mi East 11.5 mph - N/A   Scattered Clouds
3:50 PM 86.0 °F 91.8 °F 71.6 °F 62% 30.10 in 10.0 mi ENE 12.7 mph - N/A   Scattered Clouds
4:50 PM 84.2 °F 88.4 °F 69.8 °F 62% 30.10 in 10.0 mi ENE 11.5 mph - N/A   Scattered Clouds
5:50 PM 84.2 °F 88.4 °F 69.8 °F 62% 30.11 in 10.0 mi East 15.0 mph - N/A   Scattered Clouds
6:50 PM 82.4 °F 86.3 °F 69.8 °F 66% 30.10 in 10.0 mi ENE 10.4 mph - N/A   Partly Cloudy
7:50 PM 80.6 °F 84.6 °F 71.6 °F 74% 30.10 in 10.0 mi East 9.2 mph - N/A   Clear
8:15 PM 78.8 °F - 71.6 °F 78% 30.11 in 10.0 mi Calm Calm - N/A   Clear
8:35 PM 77.0 °F - 71.6 °F 83% 30.12 in 10.0 mi Calm Calm - N/A   Partly Cloudy
8:55 PM 77.0 °F - 71.6 °F 83% 30.13 in 10.0 mi Calm Calm - N/A   Partly Cloudy
9:15 PM 75.2 °F - 71.6 °F 89% 30.14 in 10.0 mi Calm Calm - N/A   Clear
9:35 PM 73.4 °F - 71.6 °F 94% 30.14 in 10.0 mi Calm Calm - N/A   Clear
9:55 PM 73.4 °F - 71.6 °F 94% 30.14 in 10.0 mi Calm Calm - N/A   Clear
10:15 PM 73.4 °F - 71.6 °F 94% 30.14 in 10.0 mi Calm Calm - N/A   Clear
10:35 PM 71.6 °F - 71.6 °F 100% 30.14 in 10.0 mi Calm Calm - N/A   Clear
10:55 PM 71.6 °F - 71.6 °F 100% 30.14 in 10.0 mi Calm Calm - N/A   Clear
11:15 PM 73.4 °F - 71.6 °F 94% 30.14 in 10.0 mi Calm Calm - N/A   Clear
11:35 PM 73.4 °F - 71.6 °F 94% 30.14 in 10.0 mi Calm Calm - N/A   Clear
11:55 PM 71.6 °F - 71.6 °F 100% 30.13 in 10.0 mi Calm Calm - N/A   Clear